Perivale, United Kingdom

11:08 PM BST on June 27, 2017 (GMT +0100)
Perivale

Weather History for 03672 - February, 2013

Change the Weather History Date:

Wednesday, February 20, 2013

  Actual Average Record
Temperature  
Mean Temperature 38 °F -  
Max Temperature 42 °F 49 °F - ()
Min Temperature 33 °F 37 °F - ()
Degree Days  
Heating Degree Days 28    
Moisture  
Dew Point 29 °F    
Average Humidity 72    
Maximum Humidity 93    
Minimum Humidity 42    
Precipitation  
Precipitation 0.02 in - - ()
Sea Level Pressure  
Sea Level Pressure 30.21 in    
Wind  
Wind Speed 10 mph ()    
Max Wind Speed 18 mph    
Max Gust Speed -    
Visibility 6.3 miles    
Events Rain    
T = Trace of Precipitation, MM = Missing Value Source: Averaged Metar Reports

Daily Weather History Graph

Daily Weather History Graph

Search for Another Location

Airport or City:

Trip Planner

Search our weather history database for the weather conditions in past years. The results will help you decide how hot, cold, wet, or windy it might be!

Date:

Astronomy

Feb. 20, 2013 Rise Set
Actual Time 7:05 AM GMT 5:26 PM GMT
Civil Twilight 6:31 AM GMT 6:00 PM GMT
Nautical Twilight 5:52 AM GMT 6:39 PM GMT
Astronomical Twilight 5:14 AM GMT 7:17 PM GMT
Moon 12:12 PM GMT (2/20) 3:36 AM GMT (2/20)
Length of Visible Light 11h 28m
Length of Day
10h 20m
Waxing Gibbous, 74% of the Moon is Illuminated
Feb 20
Waxing Gibbous
Feb 25
Full
Mar 4
Last Quarter
Mar 11
New
Mar 19
First Quarter

Hourly Weather History & Observations

Time (GMT) Temp. Windchill Dew Point Humidity Pressure Visibility Wind Dir Wind Speed Gust Speed Precip Events Conditions
12:50 AM 33.8 °F 25.8 °F 32.0 °F 93% 30.12 in - East 10.4 mph - N/A   Mostly Cloudy
1:50 AM 35.6 °F 29.9 °F 33.8 °F 93% 30.12 in - ENE 6.9 mph - N/A   Unknown
2:50 AM 35 °F - 34 °F 93% 30.15 in 1 mi ENE 6.9 mph - -  
2:50 AM 35.6 °F 29.9 °F 33.8 °F 93% 30.12 in 0.9 mi ENE 6.9 mph - N/A   Unknown
3:50 AM 35.6 °F 31.7 °F 33.8 °F 93% 30.12 in 3.1 mi SE 4.6 mph - N/A   Mostly Cloudy
4:50 AM 35.6 °F 32.8 °F 33.8 °F 93% 30.15 in 2.5 mi NNW 3.5 mph - N/A   Mostly Cloudy
5:50 AM 36 °F - 34 °F 90% 30.18 in 1 mi NNE 4.6 mph - - Rain Light Drizzle
5:50 AM 35.6 °F 31.7 °F 33.8 °F 93% 30.15 in 1.2 mi NNE 4.6 mph - N/A   Light Drizzle
6:50 AM 37.4 °F 33.8 °F 35.6 °F 93% 30.18 in 1.0 mi North 4.6 mph - N/A   Light Drizzle
7:50 AM 39.2 °F 31.2 °F 37.4 °F 93% 30.18 in 1.6 mi East 13.8 mph - N/A   Light Drizzle
8:50 AM 38 °F - 35 °F 85% 30.22 in 4 mi East 12.7 mph - - Rain Light Drizzle
8:50 AM 39.2 °F 31.6 °F 35.6 °F 87% 30.21 in 3.7 mi East 12.7 mph - N/A   Haze
9:50 AM 39.2 °F 32.0 °F 32.0 °F 75% 30.21 in 6.2 mi East 11.5 mph - N/A   Mostly Cloudy
10:50 AM 39.2 °F 31.2 °F 30.2 °F 70% 30.21 in 6.2 mi East 13.8 mph - N/A   Mostly Cloudy
11:50 AM 40 °F - 27 °F 49% 30.25 in 12 mi ESE 17.3 mph - -   Partly Cloudy
11:50 AM 41.0 °F 32.5 °F 26.6 °F 57% 30.24 in 6.2 mi ESE 17.3 mph - N/A   Scattered Clouds
12:50 PM 41.0 °F 32.2 °F 26.6 °F 57% 30.24 in 6.2 mi ESE 18.4 mph - N/A   Partly Cloudy
1:50 PM 42.8 °F 35.4 °F 26.6 °F 53% 30.21 in 6.2 mi ESE 15.0 mph - N/A   Scattered Clouds
2:50 PM 40 °F - 25 °F 42% 30.25 in 16 mi East 16.1 mph - -   Partly Cloudy
2:50 PM 39.2 °F 30.5 °F 24.8 °F 56% 30.21 in 6.2 mi East 16.1 mph - N/A   Scattered Clouds
3:50 PM 39.2 °F 30.2 °F 24.8 °F 56% 30.21 in 6.2 mi East 17.3 mph - N/A   Scattered Clouds
4:50 PM 37.4 °F 28.5 °F 26.6 °F 65% 30.21 in 6.2 mi East 15.0 mph - N/A   Partly Cloudy
5:50 PM 35 °F - 26 °F 58% 30.25 in 19 mi East 17.3 mph - -   Scattered Clouds
5:50 PM 35.6 °F 25.5 °F 26.6 °F 70% 30.24 in 6.2 mi East 17.3 mph - N/A   Partly Cloudy
6:50 PM 35.6 °F 25.9 °F 24.8 °F 65% 30.24 in 6.2 mi East 16.1 mph - N/A   Scattered Clouds
7:50 PM 35.6 °F 25.5 °F 24.8 °F 65% 30.24 in 6.2 mi East 17.3 mph - N/A   Mostly Cloudy
8:50 PM 35 °F - 26 °F 58% 30.28 in 16 mi East 16.1 mph - -   Mostly Cloudy
8:50 PM 35.6 °F 25.9 °F 26.6 °F 70% 30.27 in 6.2 mi East 16.1 mph - N/A   Mostly Cloudy
9:50 PM 35.6 °F 25.9 °F 24.8 °F 65% 30.27 in 6.2 mi East 16.1 mph - N/A   Mostly Cloudy
10:50 PM 35.6 °F 26.2 °F 24.8 °F 65% 30.24 in 6.2 mi East 15.0 mph - N/A   Mostly Cloudy
11:50 PM 36 °F - 26 °F 54% 30.27 in 13 mi East 11.5 mph - -   Overcast
11:50 PM 35.6 °F 27.5 °F 24.8 °F 65% 30.24 in 6.2 mi East 11.5 mph - N/A   Overcast